| time (UTC) | temp F | wind direction | speed MPH | gust MPH | rain 1hr in | rain 24hr in | rain mn in | humidity % | barometer mb |
| 20260901082652 | 77 | 204 | 0.0 | 0.0 | 0.00 | 0.00 | 0.00 | 95 | 1019.7 |
| 20260901082148 | 77 | 193 | 0.0 | 0.0 | 0.00 | 0.00 | 0.00 | 95 | 1019.4 |
| 20260901081643 | 77 | 201 | 0.0 | 0.0 | 0.00 | 0.00 | 0.00 | 95 | 1019.7 |
| 20260901081143 | 77 | 203 | 0.0 | 0.0 | 0.00 | 0.00 | 0.00 | 95 | 1019.6 |
| 20260901080643 | 77 | 207 | 0.0 | 0.0 | 0.00 | 0.00 | 0.00 | 95 | 1019.7 |
| 20260901080141 | 77 | 208 | 0.0 | 0.0 | 0.00 | 0.00 | 0.00 | 94 | 1019.6 |
| 20260901075637 | 77 | 201 | 0.0 | 0.0 | 0.00 | 0.00 | 0.00 | 94 | 1019.7 |
| 20260901075136 | 77 | 203 | 0.0 | 0.0 | 0.00 | 0.00 | 0.00 | 94 | 1019.7 |
| 20260901074636 | 77 | 197 | 0.0 | 0.0 | 0.00 | 0.00 | 0.00 | 94 | 1019.7 |
| 20260901074131 | 77 | 207 | 0.0 | 0.0 | 0.00 | 0.00 | 0.00 | 93 | 1019.7 |
| 20260901073628 | 77 | 199 | 0.0 | 0.0 | 0.00 | 0.00 | 0.00 | 93 | 1019.6 |
| 20260901073123 | 78 | 193 | 0.0 | 0.0 | 0.00 | 0.00 | 0.00 | 93 | 1019.8 |
| 20260901072618 | 78 | 202 | 0.0 | 0.0 | 0.00 | 0.00 | 0.00 | 92 | 1019.8 |
| 20260901072113 | 78 | 198 | 0.0 | 0.0 | 0.00 | 0.00 | 0.00 | 92 | 1019.8 |
| 20260901071607 | 78 | 200 | 0.0 | 0.0 | 0.00 | 0.00 | 0.00 | 92 | 1019.7 |
| 20260901071106 | 78 | 206 | 0.0 | 0.0 | 0.00 | 0.00 | 0.00 | 91 | 1019.7 |
| 20260901070555 | 78 | 191 | 0.0 | 0.0 | 0.00 | 0.00 | 0.00 | 91 | 1019.7 |
| 20260901070050 | 79 | 204 | 0.0 | 0.0 | 0.00 | 0.00 | 0.00 | 90 | 1019.6 |
| 20260901065545 | 79 | 196 | 0.0 | 0.0 | 0.00 | 0.00 | 0.00 | 90 | 1019.9 |
| 20260901065039 | 79 | 176 | 0.0 | 1.0 | 0.00 | 0.00 | 0.00 | 90 | 1020.0 |
| 20260901064537 | 79 | 219 | 0.0 | 1.0 | 0.00 | 0.00 | 0.00 | 89 | 1019.9 |
| 20260901064032 | 80 | 200 | 0.0 | 0.0 | 0.00 | 0.00 | 0.00 | 89 | 1020.0 |
| 20260901063524 | 80 | 211 | 0.0 | 0.0 | 0.00 | 0.00 | 0.00 | 88 | 1019.7 |
| 20260901063019 | 80 | 202 | 0.0 | 0.0 | 0.00 | 0.00 | 0.00 | 88 | 1019.7 |
| 20260901062514 | 80 | 212 | 1.0 | 1.0 | 0.00 | 0.00 | 0.00 | 88 | 1019.8 |
| 20260901062005 | 80 | 200 | 0.0 | 0.0 | 0.00 | 0.00 | 0.00 | 87 | 1019.9 |
| 20260901061502 | 80 | 200 | 0.0 | 0.0 | 0.00 | 0.00 | 0.00 | 87 | 1019.7 |
| 20260901061000 | 81 | 208 | 0.0 | 0.0 | 0.00 | 0.00 | 0.00 | 86 | 1019.8 |
| 20260901060450 | 81 | 200 | 0.0 | 0.0 | 0.00 | 0.00 | 0.00 | 86 | 1019.9 |
| 20260901055950 | 81 | 195 | 0.0 | 0.0 | 0.00 | 0.00 | 0.00 | 86 | 1020.0 |
| 20260901055446 | 81 | 199 | 0.0 | 1.0 | 0.00 | 0.00 | 0.00 | 85 | 1020.0 |
| 20260901054943 | 81 | 198 | 0.0 | 0.0 | 0.00 | 0.00 | 0.00 | 85 | 1020.0 |
| 20260901054440 | 81 | 171 | 0.0 | 1.0 | 0.00 | 0.00 | 0.00 | 85 | 1020.2 |
| 20260901053936 | 81 | 200 | 0.0 | 0.0 | 0.00 | 0.00 | 0.00 | 85 | 1020.0 |
| 20260901053430 | 82 | 189 | 0.0 | 0.0 | 0.00 | 0.00 | 0.00 | 85 | 1020.2 |
| 20260901052926 | 82 | 186 | 0.0 | 0.0 | 0.00 | 0.00 | 0.00 | 84 | 1019.9 |
| 20260901052421 | 82 | 196 | 0.0 | 1.0 | 0.00 | 0.00 | 0.00 | 84 | 1019.9 |
| 20260901051914 | 82 | 200 | 1.0 | 2.0 | 0.00 | 0.00 | 0.00 | 84 | 1019.9 |
| 20260901051409 | 82 | 197 | 0.0 | 0.0 | 0.00 | 0.00 | 0.00 | 84 | 1019.6 |
| 20260901050904 | 82 | 196 | 0.0 | 0.0 | 0.00 | 0.00 | 0.00 | 84 | 1020.1 |
| 20260901050400 | 82 | 208 | 0.0 | 0.0 | 0.00 | 0.00 | 0.00 | 84 | 1019.8 |
| 20260901045859 | 82 | 195 | 0.0 | 1.0 | 0.00 | 0.00 | 0.00 | 84 | 1019.8 |
| 20260901045354 | 82 | 144 | 1.0 | 2.0 | 0.00 | 0.00 | 0.00 | 84 | 1019.7 |
| 20260901044849 | 82 | 203 | 2.0 | 2.0 | 0.00 | 0.00 | 0.00 | 83 | 1019.5 |
| 20260901044346 | 82 | 164 | 1.0 | 1.0 | 0.00 | 0.00 | 0.00 | 83 | 1019.7 |
| 20260901043841 | 83 | 174 | 1.0 | 1.0 | 0.00 | 0.00 | 0.00 | 83 | 1019.7 |
| 20260901043338 | 83 | 220 | 1.0 | 2.0 | 0.00 | 0.00 | 0.00 | 83 | 1019.7 |
| 20260901042837 | 83 | 162 | 1.0 | 2.0 | 0.00 | 0.00 | 0.00 | 83 | 1019.7 |
| 20260901042337 | 83 | 197 | 1.0 | 2.0 | 0.00 | 0.00 | 0.00 | 83 | 1019.6 |
| 20260901041833 | 83 | 175 | 3.0 | 5.0 | 0.00 | 0.00 | 0.00 | 83 | 1019.6 |
| 20260901041328 | 83 | 159 | 1.0 | 2.0 | 0.00 | 0.00 | 0.00 | 83 | 1019.7 |
| 20260901040828 | 83 | 161 | 3.0 | 3.0 | 0.00 | 0.00 | 0.00 | 83 | 1019.6 |
| 20260901040327 | 83 | 146 | 1.0 | 1.0 | 0.00 | 0.00 | 0.00 | 83 | 1019.6 |
| 20260901035826 | 83 | 199 | 1.0 | 1.0 | 0.00 | 0.00 | 0.00 | 83 | 1019.7 |
| 20260901035325 | 83 | 87 | 2.0 | 3.0 | 0.00 | 0.00 | 0.00 | 84 | 1019.7 |
| 20260901034824 | 83 | 193 | 1.0 | 1.0 | 0.00 | 0.00 | 0.00 | 84 | 1019.5 |
| 20260901034319 | 83 | 173 | 2.0 | 2.0 | 0.00 | 0.00 | 0.00 | 84 | 1019.6 |
| 20260901033813 | 83 | 161 | 1.0 | 2.0 | 0.00 | 0.00 | 0.00 | 84 | 1019.2 |
| 20260901033313 | 83 | 191 | 2.0 | 2.0 | 0.00 | 0.00 | 0.00 | 83 | 1019.4 |
| 20260901032811 | 83 | 177 | 4.0 | 5.0 | 0.00 | 0.00 | 0.00 | 83 | 1019.6 |
| 20260901032307 | 83 | 117 | 2.0 | 3.0 | 0.00 | 0.00 | 0.00 | 83 | 1019.4 |
| 20260901031801 | 83 | 216 | 2.0 | 3.0 | 0.00 | 0.00 | 0.00 | 83 | 1019.1 |
| 20260901031257 | 82 | 162 | 1.0 | 3.0 | 0.00 | 0.00 | 0.00 | 84 | 1019.0 |
| 20260901030756 | 82 | 178 | 0.0 | 0.0 | 0.00 | 0.00 | 0.00 | 84 | 1018.9 |
| 20260901030256 | 82 | 190 | 0.0 | 0.0 | 0.00 | 0.00 | 0.00 | 84 | 1019.0 |
| 20260901025751 | 82 | 189 | 1.0 | 1.0 | 0.00 | 0.00 | 0.00 | 85 | 1018.9 |
| 20260901025246 | 81 | 179 | 1.0 | 1.0 | 0.00 | 0.00 | 0.00 | 85 | 1018.9 |
| 20260901024741 | 81 | 204 | 0.0 | 0.0 | 0.00 | 0.00 | 0.00 | 84 | 1018.5 |
| 20260901024240 | 82 | 198 | 0.0 | 0.0 | 0.00 | 0.00 | 0.00 | 83 | 1018.3 |
| 20260901023738 | 82 | 205 | 0.0 | 0.0 | 0.00 | 0.00 | 0.00 | 83 | 1018.2 |
| 20260901023233 | 82 | 201 | 0.0 | 0.0 | 0.00 | 0.00 | 0.00 | 82 | 1018.1 |
| 20260901022729 | 83 | 192 | 0.0 | 0.0 | 0.00 | 0.00 | 0.00 | 82 | 1018.2 |
| 20260901022224 | 83 | 193 | 0.0 | 0.0 | 0.00 | 0.00 | 0.00 | 81 | 1018.2 |
| 20260901021719 | 83 | 196 | 0.0 | 0.0 | 0.00 | 0.00 | 0.00 | 80 | 1018.2 |
| 20260901021215 | 83 | 202 | 0.0 | 0.0 | 0.00 | 0.00 | 0.00 | 80 | 1018.0 |
| 20260901020710 | 83 | 205 | 0.0 | 0.0 | 0.00 | 0.00 | 0.00 | 80 | 1018.2 |
| 20260901020206 | 83 | 202 | 0.0 | 0.0 | 0.00 | 0.00 | 0.00 | 79 | 1018.1 |
| 20260901015705 | 84 | 201 | 0.0 | 0.0 | 0.00 | 0.00 | 0.00 | 78 | 1018.2 |
| 20260901015201 | 84 | 201 | 0.0 | 0.0 | 0.00 | 0.00 | 0.00 | 78 | 1018.2 |
| 20260901014655 | 84 | 200 | 0.0 | 0.0 | 0.00 | 0.00 | 0.00 | 77 | 1017.8 |
| 20260901014151 | 85 | 204 | 0.0 | 0.0 | 0.00 | 0.00 | 0.00 | 77 | 1017.7 |
| 20260901013647 | 85 | 200 | 0.0 | 0.0 | 0.00 | 0.00 | 0.00 | 76 | 1017.8 |
| 20260901013143 | 85 | 200 | 0.0 | 0.0 | 0.00 | 0.00 | 0.00 | 75 | 1017.7 |
| 20260901012642 | 86 | 191 | 0.0 | 1.0 | 0.00 | 0.00 | 0.00 | 74 | 1017.6 |
| 20260901012137 | 86 | 203 | 0.0 | 0.0 | 0.00 | 0.00 | 0.00 | 73 | 1017.6 |
| 20260901011633 | 86 | 204 | 0.0 | 1.0 | 0.00 | 0.00 | 0.00 | 72 | 1017.6 |
| 20260901011132 | 86 | 199 | 0.0 | 1.0 | 0.00 | 0.00 | 0.00 | 71 | 1017.6 |
| 20260901010627 | 87 | 206 | 0.0 | 1.0 | 0.00 | 0.00 | 0.00 | 70 | 1017.6 |
| 20260901010127 | 87 | 207 | 0.0 | 0.0 | 0.00 | 0.00 | 0.00 | 69 | 1017.6 |
| 20260901005626 | 87 | 205 | 0.0 | 0.0 | 0.00 | 0.00 | 0.00 | 68 | 1017.5 |
| 20260901005121 | 88 | 214 | 0.0 | 1.0 | 0.00 | 0.00 | 0.00 | 67 | 1017.4 |
| 20260901004620 | 89 | 202 | 0.0 | 0.0 | 0.00 | 0.00 | 0.00 | 66 | 1017.7 |
| 20260901004116 | 89 | 210 | 0.0 | 1.0 | 0.00 | 0.00 | 0.00 | 65 | 1017.5 |
| 20260901003611 | 90 | 199 | 0.0 | 0.0 | 0.00 | 0.00 | 0.00 | 64 | 1017.5 |
| 20260901003109 | 90 | 202 | 0.0 | 0.0 | 0.00 | 0.00 | 0.00 | 63 | 1017.7 |
| 20260901002604 | 90 | 181 | 2.0 | 2.0 | 0.00 | 0.00 | 0.00 | 62 | 1017.8 |
| 20260901002059 | 91 | 210 | 1.0 | 1.0 | 0.00 | 0.00 | 0.00 | 62 | 1017.5 |
| 20260901001553 | 91 | 200 | 0.0 | 0.0 | 0.00 | 0.00 | 0.00 | 61 | 1017.7 |
| 20260901001049 | 91 | 202 | 0.0 | 0.0 | 0.00 | 0.00 | 0.00 | 60 | 1017.4 |
| 20260901000543 | 92 | 198 | 0.0 | 0.0 | 0.00 | 0.00 | 0.00 | 58 | 1017.6 |
| 20260901000040 | 92 | 188 | 1.0 | 1.0 | 0.00 | 0.00 | 0.00 | 58 | 1017.5 |
| 20260831235533 | 92 | 182 | 1.0 | 1.0 | 0.00 | 0.00 | 0.00 | 57 | 1017.6 |
| 20260831235029 | 92 | 187 | 1.0 | 1.0 | 0.00 | 0.00 | 0.00 | 56 | 1017.6 |
| 20260831234522 | 93 | 177 | 2.0 | 2.0 | 0.00 | 0.00 | 0.00 | 56 | 1017.8 |
| 20260831234018 | 93 | 138 | 0.0 | 0.0 | 0.00 | 0.00 | 0.00 | 56 | 1017.5 |
| 20260831233513 | 93 | 128 | 3.0 | 5.0 | 0.00 | 0.00 | 0.00 | 55 | 1017.6 |
| 20260831233009 | 93 | 169 | 1.0 | 2.0 | 0.00 | 0.00 | 0.00 | 54 | 1017.5 |
| 20260831232504 | 93 | 157 | 2.0 | 2.0 | 0.00 | 0.00 | 0.00 | 55 | 1017.3 |
| 20260831232000 | 94 | 171 | 3.0 | 3.0 | 0.00 | 0.00 | 0.00 | 55 | 1017.4 |
| 20260831231456 | 94 | 165 | 1.0 | 2.0 | 0.00 | 0.00 | 0.00 | 55 | 1017.5 |
| 20260831230951 | 94 | 141 | 1.0 | 2.0 | 0.00 | 0.00 | 0.00 | 54 | 1017.4 |
| 20260831230446 | 94 | 150 | 5.0 | 7.0 | 0.00 | 0.00 | 0.00 | 53 | 1017.5 |
| 20260831225940 | 94 | 190 | 1.0 | 1.0 | 0.00 | 0.00 | 0.00 | 54 | 1017.4 |
| 20260831225437 | 95 | 88 | 3.0 | 3.0 | 0.00 | 0.00 | 0.00 | 53 | 1017.6 |
| 20260831224931 | 95 | 182 | 2.0 | 5.0 | 0.00 | 0.00 | 0.00 | 52 | 1017.4 |
| 20260831224425 | 95 | 169 | 1.0 | 2.0 | 0.00 | 0.00 | 0.00 | 52 | 1017.4 |
| 20260831223920 | 96 | 56 | 4.0 | 6.0 | 0.00 | 0.00 | 0.00 | 52 | 1017.3 |
| 20260831223415 | 96 | 107 | 1.0 | 2.0 | 0.00 | 0.00 | 0.00 | 51 | 1017.2 |
| 20260831222912 | 96 | 127 | 1.0 | 1.0 | 0.00 | 0.00 | 0.00 | 52 | 1017.6 |
| 20260831222408 | 96 | 164 | 1.0 | 2.0 | 0.00 | 0.00 | 0.00 | 52 | 1017.5 |
| 20260831221902 | 96 | 169 | 2.0 | 3.0 | 0.00 | 0.00 | 0.00 | 51 | 1017.6 |
| 20260831221358 | 95 | 122 | 3.0 | 3.0 | 0.00 | 0.00 | 0.00 | 52 | 1017.5 |
| 20260831220853 | 96 | 155 | 3.0 | 3.0 | 0.00 | 0.00 | 0.00 | 54 | 1017.6 |
| 20260831220349 | 96 | 260 | 1.0 | 1.0 | 0.00 | 0.00 | 0.00 | 54 | 1017.4 |
| 20260831215844 | 96 | 207 | 2.0 | 2.0 | 0.00 | 0.00 | 0.00 | 52 | 1017.4 |
| 20260831215339 | 96 | 96 | 5.0 | 6.0 | 0.00 | 0.00 | 0.00 | 52 | 1017.7 |
| 20260831214836 | 96 | 100 | 2.0 | 2.0 | 0.00 | 0.00 | 0.00 | 52 | 1017.8 |
| 20260831214334 | 96 | 46 | 2.0 | 3.0 | 0.00 | 0.00 | 0.00 | 52 | 1017.6 |
| 20260831213828 | 96 | 192 | 2.0 | 3.0 | 0.00 | 0.00 | 0.00 | 52 | 1017.9 |
| 20260831213325 | 95 | 133 | 3.0 | 5.0 | 0.00 | 0.00 | 0.00 | 53 | 1017.8 |
| 20260831212820 | 96 | 58 | 3.0 | 5.0 | 0.00 | 0.00 | 0.00 | 52 | 1018.0 |
| 20260831212316 | 96 | 50 | 1.0 | 2.0 | 0.00 | 0.00 | 0.00 | 54 | 1018.0 |
| 20260831211809 | 96 | 98 | 5.0 | 7.0 | 0.00 | 0.00 | 0.00 | 53 | 1017.8 |
| 20260831211304 | 96 | 79 | 4.0 | 8.0 | 0.00 | 0.00 | 0.00 | 53 | 1018.1 |
| 20260831210804 | 96 | 52 | 2.0 | 2.0 | 0.00 | 0.00 | 0.00 | 53 | 1018.1 |
| 20260831210300 | 96 | 90 | 2.0 | 3.0 | 0.00 | 0.00 | 0.00 | 53 | 1018.2 |
| 20260831205800 | 97 | 94 | 3.0 | 6.0 | 0.00 | 0.00 | 0.00 | 53 | 1018.1 |
| 20260831205256 | 96 | 116 | 2.0 | 3.0 | 0.00 | 0.00 | 0.00 | 53 | 1018.2 |
| 20260831204755 | 97 | 303 | 4.0 | 5.0 | 0.00 | 0.00 | 0.00 | 51 | 1018.3 |
| 20260831204255 | 96 | 37 | 3.0 | 5.0 | 0.00 | 0.00 | 0.00 | 52 | 1018.2 |
| 20260831203754 | 96 | 162 | 1.0 | 2.0 | 0.00 | 0.00 | 0.00 | 52 | 1018.5 |
| 20260831203249 | 97 | 84 | 1.0 | 2.0 | 0.00 | 0.00 | 0.00 | 53 | 1018.4 |
| 20260831202747 | 97 | 63 | 2.0 | 3.0 | 0.00 | 0.00 | 0.00 | 53 | 1018.7 |
| 20260831202242 | 96 | 132 | 5.0 | 6.0 | 0.00 | 0.00 | 0.00 | 53 | 1018.8 |
| 20260831201736 | 96 | 205 | 1.0 | 1.0 | 0.00 | 0.00 | 0.00 | 54 | 1018.6 |
| 20260831201235 | 97 | 98 | 5.0 | 6.0 | 0.00 | 0.00 | 0.00 | 53 | 1018.9 |
| 20260831200731 | 96 | 83 | 2.0 | 3.0 | 0.00 | 0.00 | 0.00 | 54 | 1018.8 |
| 20260831200226 | 96 | 104 | 4.0 | 6.0 | 0.00 | 0.00 | 0.00 | 54 | 1018.9 |
| 20260831195722 | 96 | 243 | 3.0 | 3.0 | 0.00 | 0.00 | 0.00 | 53 | 1018.9 |
| 20260831195217 | 97 | 206 | 1.0 | 2.0 | 0.00 | 0.00 | 0.00 | 54 | 1019.1 |
| 20260831194712 | 95 | 150 | 0.0 | 1.0 | 0.00 | 0.00 | 0.00 | 54 | 1019.2 |
| 20260831194208 | 94 | 349 | 2.0 | 3.0 | 0.00 | 0.00 | 0.00 | 60 | 1019.4 |
| 20260831193707 | 94 | 41 | 2.0 | 2.0 | 0.00 | 0.00 | 0.00 | 59 | 1019.4 |
| 20260831193203 | 94 | 130 | 3.0 | 5.0 | 0.00 | 0.00 | 0.00 | 58 | 1019.4 |
| 20260831192658 | 94 | 84 | 3.0 | 5.0 | 0.00 | 0.00 | 0.00 | 59 | 1019.7 |
| 20260831192153 | 94 | 24 | 2.0 | 2.0 | 0.00 | 0.00 | 0.00 | 57 | 1019.7 |
| 20260831191649 | 93 | 127 | 1.0 | 2.0 | 0.00 | 0.00 | 0.00 | 61 | 1019.8 |
| 20260831191144 | 93 | 70 | 3.0 | 3.0 | 0.00 | 0.00 | 0.00 | 60 | 1019.9 |
| 20260831190639 | 93 | 85 | 2.0 | 2.0 | 0.00 | 0.00 | 0.00 | 59 | 1019.9 |
| 20260831190138 | 95 | 41 | 4.0 | 5.0 | 0.00 | 0.00 | 0.00 | 57 | 1020.0 |
| 20260831185634 | 95 | 334 | 4.0 | 5.0 | 0.00 | 0.00 | 0.00 | 56 | 1019.8 |
| 20260831185129 | 95 | 110 | 3.0 | 3.0 | 0.00 | 0.00 | 0.00 | 58 | 1019.9 |
| 20260831184623 | 94 | 117 | 3.0 | 5.0 | 0.00 | 0.00 | 0.00 | 58 | 1019.9 |
| 20260831184119 | 93 | 73 | 7.0 | 8.0 | 0.00 | 0.00 | 0.00 | 58 | 1020.1 |
| 20260831183619 | 94 | 52 | 3.0 | 6.0 | 0.00 | 0.00 | 0.00 | 58 | 1020.2 |
| 20260831183118 | 95 | 60 | 5.0 | 7.0 | 0.00 | 0.00 | 0.00 | 58 | 1020.4 |
| 20260831182617 | 94 | 109 | 3.0 | 6.0 | 0.00 | 0.00 | 0.00 | 58 | 1020.3 |
| 20260831182114 | 94 | 64 | 2.0 | 2.0 | 0.00 | 0.00 | 0.00 | 59 | 1020.8 |
| 20260831181613 | 96 | 141 | 1.0 | 2.0 | 0.00 | 0.00 | 0.00 | 57 | 1020.5 |
| 20260831181108 | 95 | 311 | 3.0 | 3.0 | 0.00 | 0.00 | 0.00 | 57 | 1020.6 |
| 20260831180603 | 94 | 70 | 4.0 | 7.0 | 0.00 | 0.00 | 0.00 | 59 | 1020.6 |
| 20260831180058 | 92 | 66 | 3.0 | 3.0 | 0.00 | 0.00 | 0.00 | 62 | 1020.8 |
| 20260831175558 | 93 | 95 | 5.0 | 6.0 | 0.00 | 0.00 | 0.00 | 61 | 1020.8 |
| 20260831175056 | 93 | 71 | 4.0 | 6.0 | 0.00 | 0.00 | 0.00 | 63 | 1020.8 |
| 20260831174550 | 92 | 90 | 1.0 | 1.0 | 0.00 | 0.00 | 0.00 | 64 | 1020.8 |
| 20260831174050 | 92 | 90 | 7.0 | 8.0 | 0.00 | 0.00 | 0.00 | 63 | 1021.2 |
| 20260831173548 | 92 | 70 | 6.0 | 6.0 | 0.00 | 0.00 | 0.00 | 64 | 1021.1 |
| 20260831173045 | 92 | 80 | 1.0 | 1.0 | 0.00 | 0.00 | 0.00 | 63 | 1021.1 |
| 20260831172539 | 92 | 74 | 1.0 | 3.0 | 0.00 | 0.00 | 0.00 | 64 | 1021.0 |
| 20260831172034 | 92 | 82 | 6.0 | 8.0 | 0.00 | 0.00 | 0.00 | 64 | 1021.0 |
| 20260831171530 | 93 | 83 | 4.0 | 6.0 | 0.00 | 0.00 | 0.00 | 61 | 1021.2 |
| 20260831171027 | 92 | 138 | 6.0 | 7.0 | 0.00 | 0.00 | 0.00 | 64 | 1021.4 |
| 20260831170523 | 92 | 96 | 1.0 | 2.0 | 0.00 | 0.00 | 0.00 | 65 | 1021.4 |
| 20260831170020 | 91 | 81 | 4.0 | 5.0 | 0.00 | 0.00 | 0.00 | 64 | 1021.2 |
| 20260831165520 | 92 | 135 | 1.0 | 1.0 | 0.00 | 0.00 | 0.00 | 63 | 1021.4 |
| 20260831165017 | 92 | 83 | 4.0 | 5.0 | 0.00 | 0.00 | 0.00 | 64 | 1021.5 |
| 20260831164513 | 91 | 83 | 3.0 | 3.0 | 0.00 | 0.00 | 0.00 | 63 | 1021.6 |
| 20260831164008 | 91 | 345 | 5.0 | 5.0 | 0.00 | 0.00 | 0.00 | 63 | 1021.7 |
| 20260831163503 | 91 | 106 | 2.0 | 2.0 | 0.00 | 0.00 | 0.00 | 66 | 1021.6 |
| 20260831163002 | 91 | 91 | 2.0 | 3.0 | 0.00 | 0.00 | 0.00 | 67 | 1021.6 |
| 20260831162457 | 91 | 78 | 3.0 | 6.0 | 0.00 | 0.00 | 0.00 | 67 | 1021.6 |
| 20260831161955 | 91 | 7 | 2.0 | 2.0 | 0.00 | 0.00 | 0.00 | 67 | 1021.7 |
| 20260831161452 | 90 | 311 | 2.0 | 2.0 | 0.00 | 0.00 | 0.00 | 69 | 1021.6 |
| 20260831160948 | 90 | 157 | 4.0 | 5.0 | 0.00 | 0.00 | 0.00 | 70 | 1021.7 |
| 20260831160447 | 91 | 175 | 0.0 | 1.0 | 0.00 | 0.00 | 0.00 | 71 | 1021.5 |
| 20260831155947 | 91 | 152 | 1.0 | 2.0 | 0.00 | 0.00 | 0.00 | 72 | 1021.7 |
| 20260831155442 | 91 | 263 | 2.0 | 3.0 | 0.00 | 0.00 | 0.00 | 73 | 1021.4 |
| 20260831154938 | 90 | 95 | 1.0 | 1.0 | 0.00 | 0.00 | 0.00 | 75 | 1021.5 |
| 20260831154434 | 90 | 12 | 3.0 | 3.0 | 0.00 | 0.00 | 0.00 | 76 | 1021.7 |
| 20260831153933 | 89 | 190 | 0.0 | 1.0 | 0.00 | 0.00 | 0.00 | 75 | 1021.7 |
| 20260831153428 | 88 | 176 | 1.0 | 1.0 | 0.00 | 0.00 | 0.00 | 78 | 1021.4 |
| 20260831152925 | 89 | 102 | 1.0 | 1.0 | 0.00 | 0.00 | 0.00 | 77 | 1021.5 |
| 20260831152420 | 88 | 65 | 1.0 | 1.0 | 0.00 | 0.00 | 0.00 | 79 | 1021.5 |
| 20260831151915 | 89 | 110 | 3.0 | 5.0 | 0.00 | 0.00 | 0.00 | 77 | 1021.5 |
| 20260831151414 | 90 | 248 | 2.0 | 2.0 | 0.00 | 0.00 | 0.00 | 74 | 1021.5 |
| 20260831150909 | 89 | 188 | 1.0 | 1.0 | 0.00 | 0.00 | 0.00 | 78 | 1021.3 |
| 20260831150359 | 88 | 92 | 0.0 | 1.0 | 0.00 | 0.00 | 0.00 | 79 | 1021.3 |
| 20260831145858 | 88 | 73 | 3.0 | 5.0 | 0.00 | 0.00 | 0.00 | 78 | 1021.4 |
| 20260831145355 | 89 | 103 | 2.0 | 2.0 | 0.00 | 0.00 | 0.00 | 79 | 1021.5 |
| 20260831144850 | 88 | 115 | 1.0 | 2.0 | 0.00 | 0.00 | 0.00 | 75 | 1021.4 |
| 20260831144347 | 90 | 173 | 3.0 | 3.0 | 0.00 | 0.00 | 0.00 | 74 | 1021.3 |
| 20260831143846 | 89 | 185 | 1.0 | 1.0 | 0.00 | 0.00 | 0.00 | 73 | 1021.3 |
| 20260831143341 | 88 | 158 | 1.0 | 1.0 | 0.00 | 0.00 | 0.00 | 77 | 1021.4 |
| 20260831142837 | 88 | 166 | 1.0 | 1.0 | 0.00 | 0.00 | 0.00 | 78 | 1021.1 |
| 20260831142332 | 88 | 252 | 2.0 | 2.0 | 0.00 | 0.00 | 0.00 | 79 | 1021.1 |
| 20260831141826 | 87 | 206 | 2.0 | 2.0 | 0.00 | 0.00 | 0.00 | 79 | 1021.2 |
| 20260831141321 | 87 | 259 | 2.0 | 2.0 | 0.00 | 0.00 | 0.00 | 80 | 1021.3 |
| 20260831140816 | 86 | 215 | 1.0 | 2.0 | 0.00 | 0.00 | 0.00 | 81 | 1021.0 |
| 20260831140311 | 85 | 217 | 2.0 | 2.0 | 0.00 | 0.00 | 0.00 | 83 | 1021.2 |
| 20260831135808 | 86 | 200 | 1.0 | 1.0 | 0.00 | 0.00 | 0.00 | 83 | 1021.1 |
| 20260831135306 | 85 | 146 | 1.0 | 1.0 | 0.00 | 0.00 | 0.00 | 83 | 1021.2 |
| 20260831134800 | 85 | 163 | 1.0 | 1.0 | 0.00 | 0.00 | 0.00 | 84 | 1021.2 |
| 20260831134256 | 84 | 150 | 0.0 | 0.0 | 0.00 | 0.00 | 0.00 | 86 | 1021.1 |
| 20260831133755 | 83 | 198 | 1.0 | 1.0 | 0.00 | 0.00 | 0.00 | 86 | 1021.1 |
| 20260831133254 | 84 | 208 | 1.0 | 2.0 | 0.00 | 0.00 | 0.00 | 85 | 1021.1 |
| 20260831132744 | 84 | 202 | 1.0 | 1.0 | 0.00 | 0.00 | 0.00 | 85 | 1021.0 |
| 20260831132240 | 83 | 189 | 0.0 | 0.0 | 0.00 | 0.00 | 0.00 | 88 | 1021.1 |
| 20260831131738 | 81 | 194 | 0.0 | 0.0 | 0.00 | 0.00 | 0.00 | 90 | 1020.7 |
| 20260831131235 | 80 | 193 | 0.0 | 0.0 | 0.00 | 0.00 | 0.00 | 91 | 1020.8 |
| 20260831130730 | 80 | 180 | 0.0 | 0.0 | 0.00 | 0.00 | 0.00 | 93 | 1020.9 |
| 20260831130225 | 79 | 184 | 0.0 | 0.0 | 0.00 | 0.00 | 0.00 | 95 | 1020.9 |
| 20260831125723 | 78 | 189 | 0.0 | 0.0 | 0.00 | 0.00 | 0.00 | 96 | 1020.8 |
| 20260831125220 | 77 | 186 | 0.0 | 0.0 | 0.00 | 0.00 | 0.00 | 98 | 1020.7 |
| 20260831124714 | 76 | 185 | 0.0 | 0.0 | 0.00 | 0.00 | 0.00 | 99 | 1020.6 |
| 20260831124211 | 76 | 190 | 0.0 | 0.0 | 0.00 | 0.00 | 0.00 | 99 | 1020.4 |
| 20260831123711 | 75 | 193 | 0.0 | 0.0 | 0.00 | 0.00 | 0.00 | 99 | 1020.6 |
| 20260831123210 | 75 | 197 | 0.0 | 0.0 | 0.00 | 0.00 | 0.00 | 99 | 1020.3 |
| 20260831122709 | 74 | 191 | 0.0 | 0.0 | 0.00 | 0.00 | 0.00 | 99 | 1020.3 |
| 20260831122206 | 74 | 186 | 0.0 | 0.0 | 0.00 | 0.00 | 0.00 | 99 | 1020.0 |
| 20260831121704 | 73 | 196 | 0.0 | 0.0 | 0.00 | 0.00 | 0.00 | 99 | 1020.4 |
| 20260831121201 | 73 | 197 | 0.0 | 0.0 | 0.00 | 0.00 | 0.00 | 99 | 1020.0 |
| 20260831120656 | 72 | 200 | 0.0 | 0.0 | 0.00 | 0.00 | 0.00 | 99 | 1020.1 |
| 20260831120151 | 73 | 207 | 0.0 | 0.0 | 0.00 | 0.00 | 0.00 | 99 | 1020.2 |
| 20260831115642 | 73 | 197 | 0.0 | 0.0 | 0.00 | 0.00 | 0.00 | 99 | 1020.1 |
| 20260831115137 | 73 | 197 | 0.0 | 0.0 | 0.00 | 0.00 | 0.00 | 99 | 1019.9 |
| 20260831114636 | 73 | 197 | 0.0 | 0.0 | 0.00 | 0.00 | 0.00 | 99 | 1019.8 |
| 20260831114131 | 73 | 191 | 0.0 | 0.0 | 0.00 | 0.00 | 0.00 | 99 | 1019.9 |
| 20260831113630 | 73 | 202 | 0.0 | 0.0 | 0.00 | 0.00 | 0.00 | 98 | 1019.9 |
| 20260831113126 | 73 | 202 | 0.0 | 0.0 | 0.00 | 0.00 | 0.00 | 98 | 1019.9 |
| 20260831112625 | 73 | 205 | 0.0 | 0.0 | 0.00 | 0.00 | 0.00 | 98 | 1019.8 |
| 20260831112120 | 73 | 200 | 0.0 | 0.0 | 0.00 | 0.00 | 0.00 | 98 | 1019.9 |
| 20260831111616 | 73 | 199 | 0.0 | 0.0 | 0.00 | 0.00 | 0.00 | 98 | 1019.9 |
| 20260831111112 | 73 | 199 | 0.0 | 0.0 | 0.00 | 0.00 | 0.00 | 98 | 1019.7 |
| 20260831110606 | 73 | 201 | 0.0 | 0.0 | 0.00 | 0.00 | 0.00 | 98 | 1019.9 |
| 20260831105600 | 74 | 201 | 0.0 | 0.0 | 0.00 | 0.00 | 0.00 | 97 | 1019.9 |
| 20260831105055 | 74 | 194 | 0.0 | 0.0 | 0.00 | 0.00 | 0.00 | 97 | 1019.7 |
| 20260831104551 | 74 | 201 | 0.0 | 0.0 | 0.00 | 0.00 | 0.00 | 97 | 1019.6 |
| 20260831104048 | 74 | 217 | 0.0 | 1.0 | 0.00 | 0.00 | 0.00 | 97 | 1019.6 |
| 20260831103543 | 74 | 239 | 1.0 | 1.0 | 0.00 | 0.00 | 0.00 | 97 | 1019.4 |
| 20260831103039 | 75 | 216 | 0.0 | 1.0 | 0.00 | 0.00 | 0.00 | 97 | 1019.5 |
| 20260831102532 | 75 | 236 | 1.0 | 1.0 | 0.00 | 0.00 | 0.00 | 97 | 1019.7 |
| 20260831102027 | 75 | 236 | 1.0 | 1.0 | 0.00 | 0.00 | 0.00 | 96 | 1019.4 |
| 20260831101522 | 75 | 226 | 1.0 | 1.0 | 0.00 | 0.00 | 0.00 | 96 | 1019.6 |
| 20260831101019 | 75 | 220 | 0.0 | 1.0 | 0.00 | 0.00 | 0.00 | 96 | 1019.5 |
| 20260831100514 | 75 | 207 | 0.0 | 0.0 | 0.00 | 0.00 | 0.00 | 95 | 1019.8 |
| 20260831100010 | 75 | 200 | 0.0 | 0.0 | 0.00 | 0.00 | 0.00 | 95 | 1019.7 |
| 20260831095508 | 75 | 198 | 0.0 | 0.0 | 0.00 | 0.00 | 0.00 | 95 | 1019.8 |
| 20260831095003 | 75 | 207 | 0.0 | 0.0 | 0.00 | 0.00 | 0.00 | 95 | 1019.7 |
| 20260831094459 | 76 | 200 | 0.0 | 0.0 | 0.00 | 0.00 | 0.00 | 94 | 1019.6 |
| 20260831093955 | 76 | 194 | 0.0 | 0.0 | 0.00 | 0.00 | 0.00 | 94 | 1019.8 |
| 20260831093450 | 76 | 203 | 0.0 | 0.0 | 0.00 | 0.00 | 0.00 | 94 | 1019.4 |
| 20260831092947 | 77 | 206 | 0.0 | 0.0 | 0.00 | 0.00 | 0.00 | 94 | 1019.4 |
| 20260831092443 | 77 | 205 | 0.0 | 0.0 | 0.00 | 0.00 | 0.00 | 93 | 1019.1 |
| 20260831091943 | 77 | 212 | 0.0 | 1.0 | 0.00 | 0.00 | 0.00 | 93 | 1019.4 |
| 20260831091438 | 77 | 200 | 0.0 | 0.0 | 0.00 | 0.00 | 0.00 | 93 | 1019.2 |
| 20260831090933 | 78 | 185 | 0.0 | 0.0 | 0.00 | 0.00 | 0.00 | 93 | 1019.0 |
| 20260831090429 | 78 | 191 | 1.0 | 1.0 | 0.00 | 0.00 | 0.00 | 93 | 1019.4 |
| 20260831085925 | 78 | 185 | 0.0 | 1.0 | 0.00 | 0.00 | 0.00 | 92 | 1019.2 |
| 20260831085420 | 78 | 188 | 0.0 | 0.0 | 0.00 | 0.00 | 0.00 | 92 | 1019.4 |
| 20260831084919 | 78 | 178 | 1.0 | 1.0 | 0.00 | 0.00 | 0.00 | 92 | 1019.5 |
| 20260831084416 | 78 | 198 | 1.0 | 1.0 | 0.00 | 0.00 | 0.00 | 92 | 1019.5 |
| 20260831083912 | 78 | 204 | 2.0 | 3.0 | 0.00 | 0.00 | 0.00 | 92 | 1019.2 |
| 20260831083407 | 78 | 188 | 1.0 | 1.0 | 0.00 | 0.00 | 0.00 | 92 | 1019.4 |